Previsão horária em Ploszczyna

Hoje, 3 Março, Quarta-feira

Tempo Temperatura Precipitação Vento Pressão Humidade
00:00 +6°C° 0 mm 1 m/s 742 mmHg 71%
01:00 +6°C° 0 mm 1 m/s 742 mmHg 70%
02:00 +5°C° 0 mm 1 m/s 742 mmHg 67%
03:00 +5°C° 0 mm 1 m/s 741 mmHg 65%
04:00 +5°C° 0 mm 1 m/s 741 mmHg 63%
05:00 +5°C° 0 mm 1 m/s 741 mmHg 63%
06:00 +5°C° 0 mm 1 m/s 741 mmHg 63%
07:00 +4°C° 0 mm 1 m/s 740 mmHg 63%
08:00 +6°C° 0 mm 1 m/s 740 mmHg 59%
09:00 +8°C° 0 mm 1 m/s 740 mmHg 55%
10:00 +10°C° 0 mm 1 m/s 740 mmHg 51%
11:00 +11°C° 0 mm 1 m/s 740 mmHg 49%
12:00 +12°C° 0 mm 1 m/s 739 mmHg 48%
13:00 +13°C° 0 mm 2 m/s 739 mmHg 47%
14:00 +13°C° 0 mm 2 m/s 738 mmHg 50%
15:00 +12°C° 0 mm 2 m/s 738 mmHg 53%
16:00 +12°C° 0 mm 2 m/s 737 mmHg 55%
17:00 +9°C° 0 mm 2 m/s 737 mmHg 61%
18:00 +8°C° 0 mm 2 m/s 736 mmHg 66%
19:00 +6°C° 0 mm 2 m/s 736 mmHg 71%
20:00 +6°C° 0 mm 2 m/s 736 mmHg 71%
21:00 +6°C° 0 mm 2 m/s 735 mmHg 72%
22:00 +5°C° 0 mm 3 m/s 735 mmHg 72%
23:00 +5°C° 0 mm 3 m/s 734 mmHg 73%

Amanhã, 4 Março, Quinta-feira

Tempo Temperatura Precipitação Vento Pressão Humidade
00:00 +5°C° 0 mm 3 m/s 734 mmHg 75%
01:00 +5°C° 0 mm 3 m/s 734 mmHg 77%
02:00 +5°C° 0 mm 3 m/s 733 mmHg 79%
03:00 +4°C° 0 mm 3 m/s 733 mmHg 82%
04:00 +4°C° 0 mm 3 m/s 732 mmHg 85%
05:00 +4°C° 0 mm 3 m/s 732 mmHg 87%
06:00 +4°C° 0 mm 3 m/s 732 mmHg 89%
07:00 +4°C° 0 mm 3 m/s 732 mmHg 90%
08:00 +5°C° 0 mm 4 m/s 732 mmHg 84%
09:00 +6°C° 0 mm 4 m/s 731 mmHg 77%
10:00 +8°C° 0 mm 5 m/s 731 mmHg 71%
11:00 +8°C° 0 mm 5 m/s 731 mmHg 69%
12:00 +10°C° 0 mm 4 m/s 730 mmHg 67%
13:00 +10°C° 0 mm 4 m/s 730 mmHg 65%
14:00 +10°C° 0.1 mm 4 m/s 730 mmHg 69%
15:00 +8°C° 0.1 mm 4 m/s 729 mmHg 74%
16:00 +8°C° 0.1 mm 3 m/s 728 mmHg 79%
17:00 +7°C° 0.3 mm 3 m/s 728 mmHg 82%
18:00 +5°C° 0.3 mm 3 m/s 728 mmHg 85%
19:00 +5°C° 0.3 mm 2 m/s 728 mmHg 88%
20:00 +4°C° 1.2 mm 2 m/s 728 mmHg 89%
21:00 +2°C° 1.2 mm 3 m/s 728 mmHg 91%
22:00 +1°C° 1.2 mm 3 m/s 728 mmHg 92%
23:00 +1°C° 0.2 mm 3 m/s 729 mmHg 93%

Depois de amanhã, 5 Março, Sexta-feira

Tempo Temperatura Precipitação Vento Pressão Humidade
00:00 +2°C° 0.2 mm 2 m/s 729 mmHg 94%
01:00 +1°C° 0.2 mm 2 m/s 729 mmHg 95%
02:00 0°C° 0.4 mm 3 m/s 729 mmHg 95%
03:00 0°C° 0.4 mm 3 m/s 730 mmHg 95%
04:00 -2°C° 0.4 mm 4 m/s 730 mmHg 95%
05:00 -2°C° 0.5 mm 4 m/s 730 mmHg 95%
06:00 -2°C° 0.5 mm 3 m/s 731 mmHg 94%
07:00 -4°C° 0.5 mm 3 m/s 732 mmHg 94%
08:00 -2°C° 0.2 mm 3 m/s 732 mmHg 89%
09:00 -2°C° 0.2 mm 3 m/s 733 mmHg 84%
10:00 -2°C° 0.2 mm 3 m/s 733 mmHg 79%
11:00 -1°C° 0 mm 3 m/s 733 mmHg 73%
12:00 -1°C° 0 mm 3 m/s 734 mmHg 67%
13:00 0°C° 0 mm 3 m/s 734 mmHg 61%
14:00 0°C° 0 mm 3 m/s 734 mmHg 61%
15:00 0°C° 0 mm 3 m/s 734 mmHg 60%
16:00 0°C° 0 mm 3 m/s 734 mmHg 59%
17:00 -1°C° 0.1 mm 3 m/s 735 mmHg 64%
18:00 -2°C° 0.1 mm 2 m/s 736 mmHg 68%
19:00 -3°C° 0.1 mm 2 m/s 736 mmHg 73%
20:00 -3°C° 0 mm 2 m/s 737 mmHg 74%
21:00 -3°C° 0 mm 2 m/s 737 mmHg 74%
22:00 -4°C° 0 mm 2 m/s 738 mmHg 75%
23:00 -4°C° 0 mm 2 m/s 738 mmHg 77%

6 Março, Sábado

Tempo Temperatura Precipitação Vento Pressão Humidade
00:00 -5°C° 0 mm 2 m/s 739 mmHg 79%
01:00 -5°C° 0 mm 2 m/s 739 mmHg 81%
02:00 -5°C° 0 mm 2 m/s 739 mmHg 82%
03:00 -5°C° 0 mm 2 m/s 740 mmHg 83%
04:00 -5°C° 0 mm 2 m/s 740 mmHg 83%
05:00 -5°C° 0 mm 2 m/s 740 mmHg 83%
06:00 -3°C° 0 mm 1 m/s 741 mmHg 83%
07:00 -3°C° 0 mm 1 m/s 741 mmHg 83%
08:00 -4°C° 0 mm 2 m/s 741 mmHg 73%
09:00 -3°C° 0 mm 2 m/s 742 mmHg 64%
10:00 -1°C° 0 mm 2 m/s 742 mmHg 54%
11:00 -1°C° 0 mm 2 m/s 742 mmHg 50%
12:00 +1°C° 0 mm 2 m/s 742 mmHg 46%
13:00 +2°C° 0 mm 2 m/s 742 mmHg 43%
14:00 +2°C° 0 mm 2 m/s 741 mmHg 44%
15:00 +1°C° 0 mm 3 m/s 741 mmHg 45%
16:00 +1°C° 0 mm 3 m/s 740 mmHg 46%
17:00 -1°C° 0 mm 2 m/s 740 mmHg 52%
18:00 -2°C° 0 mm 2 m/s 740 mmHg 57%
19:00 -3°C° 0 mm 2 m/s 740 mmHg 63%
20:00 -3°C° 0 mm 2 m/s 740 mmHg 63%
21:00 -3°C° 0 mm 2 m/s 740 mmHg 63%
22:00 -3°C° 0 mm 2 m/s 740 mmHg 63%
23:00 -3°C° 0 mm 2 m/s 739 mmHg 63%

7 Março, Domingo

Tempo Temperatura Precipitação Vento Pressão Humidade
00:00 -3°C° 0 mm 2 m/s 739 mmHg 63%
01:00 -3°C° 0 mm 2 m/s 738 mmHg 62%
02:00 -4°C° 0 mm 3 m/s 738 mmHg 63%
03:00 -4°C° 0 mm 3 m/s 737 mmHg 63%
04:00 -5°C° 0 mm 3 m/s 736 mmHg 63%
05:00 -5°C° 0 mm 3 m/s 736 mmHg 62%
06:00 -4°C° 0 mm 3 m/s 736 mmHg 61%
07:00 -4°C° 0 mm 3 m/s 736 mmHg 60%
08:00 -2°C° 0 mm 3 m/s 736 mmHg 54%
09:00 -1°C° 0 mm 4 m/s 735 mmHg 49%
10:00 0°C° 0 mm 4 m/s 735 mmHg 44%
11:00 +1°C° 0 mm 4 m/s 735 mmHg 43%
12:00 +3°C° 0 mm 4 m/s 734 mmHg 42%
13:00 +4°C° 0 mm 4 m/s 734 mmHg 41%
14:00 +3°C° 0 mm 4 m/s 733 mmHg 43%
15:00 +3°C° 0 mm 4 m/s 733 mmHg 46%
16:00 +3°C° 0 mm 4 m/s 732 mmHg 48%
17:00 +1°C° 0 mm 4 m/s 732 mmHg 54%
18:00 0°C° 0 mm 3 m/s 732 mmHg 61%
19:00 -1°C° 0 mm 3 m/s 731 mmHg 67%
20:00 -2°C° 0 mm 3 m/s 731 mmHg 70%
21:00 -2°C° 0 mm 3 m/s 731 mmHg 74%
22:00 -2°C° 0 mm 3 m/s 731 mmHg 78%
23:00 -2°C° 0 mm 3 m/s 731 mmHg 82%

8 Março, Segunda-feira

Tempo Temperatura Precipitação Vento Pressão Humidade
00:00 -2°C° 0 mm 3 m/s 731 mmHg 86%
01:00 -3°C° 0 mm 4 m/s 731 mmHg 90%
02:00 -2°C° 0.3 mm 3 m/s 732 mmHg 91%
03:00 -4°C° 0.3 mm 3 m/s 732 mmHg 93%
04:00 -4°C° 0.3 mm 3 m/s 732 mmHg 94%
05:00 -3°C° 0.2 mm 2 m/s 733 mmHg 94%
06:00 -4°C° 0.2 mm 2 m/s 733 mmHg 93%
07:00 -5°C° 0.2 mm 2 m/s 734 mmHg 93%
08:00 -4°C° 0 mm 2 m/s 734 mmHg 85%
09:00 -3°C° 0 mm 2 m/s 735 mmHg 76%
10:00 -2°C° 0 mm 3 m/s 735 mmHg 68%
11:00 -1°C° 0 mm 3 m/s 736 mmHg 63%
12:00 -1°C° 0 mm 2 m/s 736 mmHg 59%
13:00 +1°C° 0 mm 2 m/s 736 mmHg 54%
14:00 +1°C° 0 mm 2 m/s 736 mmHg 54%
15:00 -1°C° 0 mm 3 m/s 736 mmHg 53%
16:00 -1°C° 0 mm 3 m/s 736 mmHg 53%
17:00 -2°C° 0 mm 2 m/s 736 mmHg 59%
18:00 -3°C° 0 mm 2 m/s 736 mmHg 65%
19:00 -5°C° 0 mm 2 m/s 736 mmHg 72%
20:00 -5°C° 0 mm 2 m/s 737 mmHg 72%
21:00 -5°C° 0 mm 2 m/s 737 mmHg 73%
22:00 -5°C° 0 mm 2 m/s 737 mmHg 74%
23:00 -5°C° 0 mm 2 m/s 737 mmHg 74%
Mostrar mais

Necessitamos do seu Consentimento

A Meteoprog e os seus Fornecedores de Serviços podem armazenar e aceder a dados pessoais como cookies, identificadores do dispositivo ou outras tecnologias semelhantes existentes no seu dispositivo e processar estes dados para personalizar conteúdos e anúncios, assim como funcionalidades nas redes sociais e análise de tráfego.

  • Armazenar e/ou aceder a informações no seu dispositivo

    Os cookies, identificadores do dispositivo ou outras informações podem ser armazenados ou acedidos no seu dispositivo, para os fins acima indicados.

  • Anúncios e conteúdos personalizados, medição de anúncios e conteúdos, dados sobre o público-alvo e desenvolvimento de produtos

    Os anúncios e os conteúdos podem ser personalizados com base num perfil. Podem ser adicionados dados adicionais para uma maior personalização dos anúncios e dos conteúdos. A eficácia dos anúncios e dos conteúdos pode ser medida. Podem ser obtidas informações sobre o público que visualizou os anúncios e os conteúdos. Estes dados podem ser usados para desenvolver ou melhorar sistemas, softwares ou a experiência do utilizador.

Ao clicar em "Eu concordo”, permitirá o uso de cookies, identificadores do dispositivo e web beacons mencionados ou outras tecnologias semelhantes. As configurações do navegador do seu dispositivo podem ser alteradas.

Para certos fins, podem ser invocados interesses legítimos ao invés de consentimento. Pode ler mais informação sobre este assunto na nossa Política de Privacidade e Cookies.